Patuxent River, MD

3:05 PM EDT on June 23, 2017 (GMT -0400)
Patuxent River Naval Air Station

Weather History for KNHK - August, 2014

Change the Weather History Date:

Monday, August 11, 2014

  Actual Average Record
Temperature  
Mean Temperature 69 °F -  
Max Temperature 81 °F 87 °F 98 °F (1983)
Min Temperature 57 °F 70 °F 57 °F (2014)
Cooling Degree Days 4    
Growing Degree Days 19 (Base 50)    
Moisture  
Dew Point 62 °F    
Average Humidity 71    
Maximum Humidity 93    
Minimum Humidity 47    
Precipitation  
Precipitation 0.00 in - - ()
Sea Level Pressure  
Sea Level Pressure 30.09 in    
Wind  
Wind Speed 6 mph (SE)    
Max Wind Speed 15 mph    
Max Gust Speed 22 mph    
Visibility 10 miles    
Events      
Averages and records for this station are not official NWS values.
T = Trace of Precipitation, MM = Missing Value Source: NWS Daily Summary

Daily Weather History Graph

Daily Weather History Graph

Search for Another Location

Airport or City:

Trip Planner

Search our weather history database for the weather conditions in past years. The results will help you decide how hot, cold, wet, or windy it might be!

Date:

Astronomy

Aug. 11, 2014 Rise Set
Actual Time 6:16 AM EDT 8:04 PM EDT
Civil Twilight 5:48 AM EDT 8:32 PM EDT
Nautical Twilight 5:13 AM EDT 9:07 PM EDT
Astronomical Twilight 4:36 AM EDT 9:43 PM EDT
Moon 8:33 PM EDT (8/11) 7:17 AM EDT (8/11)
Length of Visible Light 14h 44m
Length of Day
13h 47m
Full, 99% of the Moon is Illuminated
Aug 11
Full
Aug 17
Last Quarter
Aug 25
New
Sep 2
First Quarter
Sep 8
Full

Hourly Weather History & Observations

Time (EDT) Temp. Heat Index Dew Point Humidity Pressure Visibility Wind Dir Wind Speed Gust Speed Precip Events Conditions
12:52 AM 66.9 °F - 57.9 °F 73% 30.12 in 10.0 mi South 4.6 mph - N/A   Clear
1:52 AM 61.0 °F - 57.9 °F 90% 30.11 in 10.0 mi SSW 3.5 mph - N/A   Clear
2:52 AM 61.0 °F - 57.9 °F 90% 30.11 in 10.0 mi Calm Calm - N/A   Clear
3:52 AM 60.1 °F - 57.0 °F 90% 30.10 in 10.0 mi Calm Calm - N/A   Clear
4:52 AM 59.0 °F - 57.0 °F 93% 30.10 in 10.0 mi Calm Calm - N/A   Clear
5:52 AM 57.9 °F - 55.9 °F 93% 30.11 in 10.0 mi Calm Calm - N/A   Partly Cloudy
6:52 AM 61.0 °F - 59.0 °F 93% 30.10 in 10.0 mi Calm Calm - N/A   Scattered Clouds
7:52 AM 71.1 °F - 66.0 °F 84% 30.11 in 10.0 mi Calm Calm - N/A   Mostly Cloudy
8:52 AM 73.0 °F - 66.0 °F 79% 30.12 in 10.0 mi ESE 8.1 mph - N/A   Mostly Cloudy
9:52 AM 77.0 °F - 64.9 °F 66% 30.12 in 10.0 mi ESE 8.1 mph - N/A   Mostly Cloudy
10:52 AM 77.0 °F - 64.9 °F 66% 30.13 in 10.0 mi SE 9.2 mph - N/A   Mostly Cloudy
11:52 AM 77.0 °F - 64.0 °F 64% 30.13 in 10.0 mi SSE 9.2 mph 21.9 mph N/A   Mostly Cloudy
12:52 PM 80.1 °F 82.3 °F 66.9 °F 64% 30.11 in 10.0 mi SE 10.4 mph - N/A   Mostly Cloudy
1:52 PM 80.1 °F 81.7 °F 64.0 °F 58% 30.10 in 10.0 mi SE 10.4 mph - N/A   Mostly Cloudy
2:52 PM 80.1 °F 81.2 °F 62.1 °F 54% 30.09 in 10.0 mi SE 12.7 mph - N/A   Mostly Cloudy
3:52 PM 81.0 °F 81.7 °F 61.0 °F 50% 30.07 in 10.0 mi ESE 13.8 mph - N/A   Mostly Cloudy
4:52 PM 79.0 °F - 57.9 °F 48% 30.06 in 10.0 mi SE 13.8 mph - N/A   Mostly Cloudy
5:52 PM 79.0 °F - 57.0 °F 47% 30.05 in 10.0 mi SE 15.0 mph - N/A   Mostly Cloudy
6:52 PM 78.1 °F - 59.0 °F 52% 30.04 in 10.0 mi SE 13.8 mph 20.7 mph N/A   Overcast
7:52 PM 77.0 °F - 63.0 °F 62% 30.04 in 10.0 mi SE 11.5 mph 19.6 mph N/A   Overcast
8:52 PM 75.9 °F - 64.0 °F 67% 30.04 in 10.0 mi SE 11.5 mph - N/A   Overcast
9:52 PM 75.9 °F - 63.0 °F 64% 30.05 in 10.0 mi SSE 12.7 mph - N/A   Overcast
10:52 PM 75.9 °F - 66.9 °F 74% 30.04 in 10.0 mi SE 12.7 mph - N/A   Overcast
11:52 PM 75.9 °F - 66.9 °F 74% 30.03 in 10.0 mi SSE 10.4 mph - N/A   Mostly Cloudy